Time,TemperatureF,DewpointF,PressureIn,WindDirection,WindDirectionDegrees,WindSpeedMPH,WindSpeedGustMPH,Humidity,HourlyPrecipIn,Conditions,Clouds,dailyrainin,SoftwareType,DateUTC
2013-10-27 00:13:00,37.0,29.0,30.12,WNW,293,0.0,0.0,72,0.00,,,0.00,,2013-10-27 05:13:00,
2013-10-27 00:23:00,37.0,29.0,30.12,WNW,293,0.0,0.0,72,0.00,,,0.00,,2013-10-27 05:23:00,
2013-10-27 00:52:00,36.0,29.0,30.11,WNW,293,0.0,0.0,75,0.00,,,0.00,,2013-10-27 05:52:00,
2013-10-27 01:13:00,34.0,28.0,30.10,WNW,293,0.0,0.0,78,0.00,,,0.00,,2013-10-27 06:13:00,
2013-10-27 01:22:00,34.0,28.0,30.10,WNW,293,0.0,0.0,78,0.00,,,0.00,,2013-10-27 06:22:00,
2013-10-27 01:42:00,34.0,28.0,30.10,WNW,293,0.0,0.0,80,0.00,,,0.00,,2013-10-27 06:42:00,
2013-10-27 01:53:00,34.0,28.0,30.10,WNW,293,0.0,0.0,80,0.00,,,0.00,,2013-10-27 06:53:00,
2013-10-27 02:12:00,33.0,28.0,30.10,WNW,293,0.0,0.0,80,0.00,,,0.00,,2013-10-27 07:12:00,
2013-10-27 02:22:00,33.0,28.0,30.10,WNW,293,0.0,0.0,80,0.00,,,0.00,,2013-10-27 07:22:00,
2013-10-27 02:52:00,32.0,27.0,30.09,WNW,293,0.0,0.0,82,0.00,,,0.00,,2013-10-27 07:52:00,
2013-10-27 03:11:00,32.0,27.0,30.09,WNW,293,0.0,0.0,82,0.00,,,0.00,,2013-10-27 08:11:00,
2013-10-27 03:22:00,32.0,27.0,30.09,WNW,293,0.0,0.0,82,0.00,,,0.00,,2013-10-27 08:22:00,
2013-10-27 03:52:00,32.0,28.0,30.09,WNW,293,0.0,0.0,84,0.00,,,0.00,,2013-10-27 08:52:00,
2013-10-27 04:12:00,31.0,27.0,30.09,WNW,293,0.0,0.0,84,0.00,,,0.00,,2013-10-27 09:12:00,
2013-10-27 04:21:00,31.0,27.0,30.09,WNW,293,0.0,0.0,84,0.00,,,0.00,,2013-10-27 09:21:00,
2013-10-27 04:54:00,31.0,27.0,30.08,WNW,293,0.0,0.0,84,0.00,,,0.00,,2013-10-27 09:54:00,
2013-10-27 05:12:00,31.0,27.0,30.09,WNW,293,0.0,0.0,85,0.00,,,0.00,,2013-10-27 10:12:00,
2013-10-27 05:23:00,31.0,27.0,30.09,WNW,293,0.0,0.0,85,0.00,,,0.00,,2013-10-27 10:23:00,
2013-10-27 05:53:00,30.0,26.0,30.09,WNW,293,0.0,0.0,86,0.00,,,0.00,,2013-10-27 10:53:00,
2013-10-27 06:12:00,30.0,27.0,30.09,WNW,293,0.0,0.0,87,0.00,,,0.00,,2013-10-27 11:12:00,
2013-10-27 06:22:00,30.0,27.0,30.09,WNW,293,0.0,0.0,87,0.00,,,0.00,,2013-10-27 11:22:00,
2013-10-27 06:52:00,29.0,26.0,30.10,WNW,293,0.0,0.0,88,0.00,,,0.00,,2013-10-27 11:52:00,
2013-10-27 07:12:00,29.0,26.0,30.10,WNW,293,0.0,0.0,89,0.00,,,0.00,,2013-10-27 12:12:00,
2013-10-27 07:22:00,29.0,26.0,30.10,WNW,293,0.0,0.0,89,0.00,,,0.00,,2013-10-27 12:22:00,
2013-10-27 07:52:00,28.0,25.0,30.11,WNW,293,0.0,0.0,89,0.00,,,0.00,,2013-10-27 12:52:00,
2013-10-27 08:21:00,28.0,25.0,30.11,WNW,293,0.0,0.0,89,0.00,,,0.00,,2013-10-27 13:21:00,
2013-10-27 08:52:00,29.0,26.0,30.11,WNW,293,0.0,0.0,90,0.00,,,0.00,,2013-10-27 13:52:00,
2013-10-27 09:11:00,31.0,29.0,30.12,WNW,293,0.0,0.0,91,0.00,,,0.00,,2013-10-27 14:11:00,
2013-10-27 09:22:00,31.0,29.0,30.12,WNW,293,0.0,0.0,91,0.00,,,0.00,,2013-10-27 14:22:00,
2013-10-27 09:52:00,37.0,33.0,30.12,WNW,293,0.0,0.0,84,0.00,,,0.00,,2013-10-27 14:52:00,
2013-10-27 10:12:00,42.0,34.0,30.12,WNW,293,0.0,1.0,73,0.00,,,0.00,,2013-10-27 15:12:00,
2013-10-27 10:22:00,42.0,34.0,30.12,WNW,293,0.0,1.0,73,0.00,,,0.00,,2013-10-27 15:22:00,
2013-10-27 10:54:00,43.0,33.0,30.13,WNW,293,0.0,1.0,67,0.00,,,0.00,,2013-10-27 15:54:00,
2013-10-27 11:13:00,47.0,35.0,30.13,SW,233,0.0,2.0,62,0.00,,,0.00,,2013-10-27 16:13:00,
2013-10-27 11:24:00,47.0,35.0,30.13,SW,233,0.0,2.0,62,0.00,,,0.00,,2013-10-27 16:24:00,
2013-10-27 11:43:00,50.0,33.0,30.13,South,187,2.0,5.0,52,0.00,,,0.00,,2013-10-27 16:43:00,
2013-10-27 11:53:00,50.0,33.0,30.13,South,187,2.0,5.0,52,0.00,,,0.00,,2013-10-27 16:53:00,
2013-10-27 12:13:00,52.0,32.0,30.12,SW,224,1.0,5.0,46,0.00,,,0.00,,2013-10-27 17:13:00,
2013-10-27 12:22:00,52.0,32.0,30.12,SW,224,1.0,5.0,46,0.00,,,0.00,,2013-10-27 17:22:00,
2013-10-27 12:53:00,53.0,31.0,30.11,SW,220,2.0,7.0,42,0.00,,,0.00,,2013-10-27 17:53:00,
2013-10-27 13:12:00,54.0,30.0,30.09,SW,225,0.0,8.0,40,0.00,,,0.00,,2013-10-27 18:12:00,
2013-10-27 13:22:00,54.0,30.0,30.09,SW,225,0.0,8.0,40,0.00,,,0.00,,2013-10-27 18:22:00,
2013-10-27 13:43:00,55.0,30.0,30.08,SSW,209,3.0,8.0,38,0.00,,,0.00,,2013-10-27 18:43:00,
2013-10-27 13:52:00,55.0,30.0,30.08,SSW,209,3.0,8.0,38,0.00,,,0.00,,2013-10-27 18:52:00,
2013-10-27 14:12:00,56.0,30.0,30.06,WNW,294,2.0,8.0,37,0.00,,,0.00,,2013-10-27 19:12:00,
2013-10-27 14:22:00,56.0,30.0,30.06,WNW,294,2.0,8.0,37,0.00,,,0.00,,2013-10-27 19:22:00,
2013-10-27 14:42:00,57.0,31.0,30.05,WSW,242,1.0,6.0,37,0.00,,,0.00,,2013-10-27 19:42:00,
2013-10-27 14:52:00,57.0,31.0,30.05,WSW,242,1.0,6.0,37,0.00,,,0.00,,2013-10-27 19:52:00,
2013-10-27 15:12:00,57.0,30.0,30.04,SW,223,1.0,6.0,36,0.00,,,0.00,,2013-10-27 20:12:00,
2013-10-27 15:22:00,57.0,30.0,30.04,SW,223,1.0,6.0,36,0.00,,,0.00,,2013-10-27 20:22:00,
2013-10-27 15:52:00,59.0,31.0,30.04,SSW,212,2.0,4.0,34,0.00,,,0.00,,2013-10-27 20:52:00,
2013-10-27 16:11:00,59.0,31.0,30.04,SW,227,1.0,8.0,34,0.00,,,0.00,,2013-10-27 21:11:00,
2013-10-27 16:21:00,59.0,31.0,30.04,SW,227,1.0,8.0,34,0.00,,,0.00,,2013-10-27 21:21:00,
2013-10-27 16:44:00,59.0,30.0,30.04,South,185,1.0,6.0,33,0.00,,,0.00,,2013-10-27 21:44:00,
2013-10-27 16:54:00,59.0,30.0,30.04,South,185,1.0,6.0,33,0.00,,,0.00,,2013-10-27 21:54:00,
2013-10-27 17:13:00,58.0,30.0,30.03,SW,233,1.0,5.0,34,0.00,,,0.00,,2013-10-27 22:13:00,
2013-10-27 17:24:00,58.0,30.0,30.03,SW,233,1.0,5.0,34,0.00,,,0.00,,2013-10-27 22:24:00,
2013-10-27 17:43:00,58.0,29.0,30.03,SW,229,0.0,4.0,33,0.00,,,0.00,,2013-10-27 22:43:00,
2013-10-27 17:54:00,58.0,29.0,30.03,SW,229,0.0,4.0,33,0.00,,,0.00,,2013-10-27 22:54:00,
2013-10-27 18:12:00,56.0,29.0,30.03,SW,229,0.0,2.0,36,0.00,,,0.00,,2013-10-27 23:12:00,
2013-10-27 18:22:00,56.0,29.0,30.03,SW,229,0.0,2.0,36,0.00,,,0.00,,2013-10-27 23:22:00,
2013-10-27 18:43:00,53.0,31.0,30.03,SW,229,0.0,0.0,42,0.00,,,0.00,,2013-10-27 23:43:00,
2013-10-27 18:52:00,53.0,31.0,30.03,SW,229,0.0,0.0,42,0.00,,,0.00,,2013-10-27 23:52:00,
2013-10-27 19:11:00,50.0,31.0,30.03,SW,229,0.0,0.0,48,0.00,,,0.00,,2013-10-28 00:11:00,
2013-10-27 19:22:00,50.0,31.0,30.03,SW,229,0.0,0.0,48,0.00,,,0.00,,2013-10-28 00:22:00,
2013-10-27 19:43:00,47.0,31.0,30.04,SW,229,0.0,1.0,54,0.00,,,0.00,,2013-10-28 00:43:00,
2013-10-27 19:52:00,47.0,31.0,30.04,SW,229,0.0,1.0,54,0.00,,,0.00,,2013-10-28 00:52:00,
2013-10-27 20:12:00,45.0,30.0,30.04,SW,229,0.0,1.0,56,0.00,,,0.00,,2013-10-28 01:12:00,
2013-10-27 20:21:00,45.0,30.0,30.04,SW,229,0.0,1.0,56,0.00,,,0.00,,2013-10-28 01:21:00,
2013-10-27 20:52:00,44.0,31.0,30.04,SW,229,0.0,0.0,60,0.00,,,0.00,,2013-10-28 01:52:00,
2013-10-27 21:12:00,43.0,30.0,30.05,SW,229,0.0,0.0,61,0.00,,,0.00,,2013-10-28 02:12:00,
2013-10-27 21:22:00,43.0,30.0,30.05,SW,229,0.0,0.0,61,0.00,,,0.00,,2013-10-28 02:22:00,
2013-10-27 21:53:00,42.0,30.0,30.06,SW,229,0.0,0.0,63,0.00,,,0.00,,2013-10-28 02:53:00,
2013-10-27 22:11:00,41.0,31.0,30.06,SW,229,0.0,0.0,66,0.00,,,0.00,,2013-10-28 03:11:00,
2013-10-27 22:22:00,41.0,31.0,30.06,SW,229,0.0,0.0,66,0.00,,,0.00,,2013-10-28 03:22:00,
2013-10-27 22:44:00,40.0,30.0,30.07,SW,229,0.0,0.0,67,0.00,,,0.00,,2013-10-28 03:44:00,
2013-10-27 22:54:00,40.0,30.0,30.07,SW,229,0.0,0.0,67,0.00,,,0.00,,2013-10-28 03:54:00,
2013-10-27 23:13:00,39.0,30.0,30.06,SW,229,0.0,0.0,70,0.00,,,0.00,,2013-10-28 04:13:00,
2013-10-27 23:23:00,39.0,30.0,30.06,SW,229,0.0,0.0,70,0.00,,,0.00,,2013-10-28 04:23:00,
2013-10-27 23:53:00,38.0,30.0,30.06,SW,229,0.0,0.0,73,0.00,,,0.00,,2013-10-28 04:53:00,